COSMOS 622

Satellite information

Favourite Embed

Satellite Type and Status

PAYLOADIN ORBIT

Key statistics

Satellite COSMOS 622 at a glance.

Uptime

18891

Days in orbit

Revolutions

≈ 12.6

Per day

Orbit

LEO

Low Earth Orbit

Inclination

74.0

Latest

Satellite identification and parameters

Extended collection of information and parameters for COSMOS 622.

Object identification

Identified? True

Debris? False

Object name: COSMOS 622

International designator: 1973-104F

Object number (NORAD): 6990

Object ID (CCSDS): 6990

Country: COMMONWEALTH OF INDEPENDENT STATES (CIS)

Current information (Y/N): Y

RCS size: MEDIUM

Orbital parameters

Period: 114.366 minutes

Inclination: 74.0264 deg

SMA: 7804.737 km

Apoapsis: 1484.019 km

Periapsis: 1369.186 km

RAAN: 273.9545 deg

Eccentricy: 0.00735661

Argument of periapsis: 30.1984 deg

Mean anomaly: 144.9311 deg

Mean motion: 12.59114787 rev/day

Mean motion (dot): -0.00000003 rev/day2

B* drag term: 0.000075583452 1/REarth

Two-line elements (TLE)

Creation date: Sept. 8, 2025, 3:16 a.m.

Reference frame: TEME

Reference center: EARTH

Epoch: Sept. 7, 2025, 8:29 p.m. UTC

TLE line 0: 0 COSMOS 622

TLE line 1: 1 06990U 73104F 25250.85395111 -.00000003 00000-0 75583-4 0 9992

TLE line 2: 2 06990 74.0264 273.9545 0073566 30.1984 144.9311 12.59114787377090

Live tracking on map

Real-time ground track for satellite COSMOS 622.

In-orbit conjunctions

There are no conjunctions computed for COSMOS 622, at the moment. Check back to stay up to date, as we update our databases every day.

Go to all conjunctions

Associated space launch

Military communications satellites

COSMOS 622 was lifted into orbit during the mission ‘Kosmos-3M | Strela-1M 57-64’, on board a Kosmos-3M space rocket.

The launch took place on Dec. 19, 1973, 9:43 a.m. from 132/2.

For more information about the launch, click the button.

Launch to space Kosmos-3M | Strela-1M 57-64
Kosmos-3M | Strela-1M 57-64

Agency: N/A

Status: Launch Successful

Launch date: Dec. 19, 1973, 9:43 a.m. UTC

Rocket: Kosmos-3M

Launch pad: 132/2

Location: Plesetsk Cosmodrome, Russian Federation

...

Latest news about this satellite

There are no fresh news available about this satellite. Check back as we update our databases every day.


Newsletter sign-up

Weekly statistics, charts and insights to help you stay on top of the space industry.